When you browse on this site, cookies collect data to enhance your experience and personalize the content and advertising you see.
Visit our Privacy Policy to learn more. By continuing to use the site, you agree to this use of cookies and data.
  • In Austria
  • List of Countries
  • For 7 days
  • Water Temperature
  • Weather Map
  • News
  • Weather Widgets
  • user-avatar
    Login

    Hourly Weather Belmopan

    Today, 23 August, Friday

    Time Temperature Precipitation Wind Pressure Humidity
    00:00 +26°C° 0 mm 1 mps 752 mmHg 99%
    01:00 +26°C° 0 mm 1 mps 752 mmHg 99%
    02:00 +26°C° 0 mm 1 mps 751 mmHg 99%
    03:00 +26°C° 0 mm 1 mps 751 mmHg 99%
    04:00 +24°C° 0 mm 0 mps 751 mmHg 98%
    05:00 +24°C° 0 mm 0 mps 751 mmHg 98%
    06:00 +24°C° 0 mm 0 mps 751 mmHg 98%
    07:00 +28°C° 0 mm 1 mps 752 mmHg 89%
    08:00 +29°C° 0 mm 1 mps 752 mmHg 81%
    09:00 +31°C° 0 mm 2 mps 753 mmHg 72%
    10:00 +34°C° 0 mm 2 mps 752 mmHg 63%
    11:00 +36°C° 0 mm 3 mps 752 mmHg 53%
    12:00 +38°C° 0 mm 3 mps 752 mmHg 44%
    13:00 +37°C° 0 mm 3 mps 751 mmHg 43%
    14:00 +37°C° 0 mm 3 mps 751 mmHg 42%
    15:00 +37°C° 0 mm 3 mps 750 mmHg 41%
    16:00 +35°C° 0 mm 3 mps 750 mmHg 52%
    17:00 +32°C° 0 mm 2 mps 750 mmHg 62%
    18:00 +30°C° 0 mm 2 mps 750 mmHg 73%
    19:00 +28°C° 0 mm 2 mps 751 mmHg 81%
    20:00 +27°C° 0 mm 1 mps 751 mmHg 90%
    21:00 +26°C° 0 mm 1 mps 752 mmHg 98%
    22:00 +26°C° 0 mm 1 mps 752 mmHg 98%
    23:00 +26°C° 0 mm 1 mps 752 mmHg 98%

    Tomorrow, 24 August, Saturday

    Time Temperature Precipitation Wind Pressure Humidity
    00:00 +26°C° 0 mm 1 mps 751 mmHg 98%
    01:00 +26°C° 0 mm 1 mps 751 mmHg 98%
    02:00 +26°C° 0 mm 1 mps 751 mmHg 98%
    03:00 +24°C° 0 mm 0 mps 751 mmHg 98%
    04:00 +23°C° 0 mm 0 mps 751 mmHg 98%
    05:00 +23°C° 0 mm 0 mps 751 mmHg 98%
    06:00 +23°C° 0 mm 0 mps 751 mmHg 99%
    07:00 +28°C° 0 mm 1 mps 752 mmHg 88%
    08:00 +30°C° 0 mm 1 mps 752 mmHg 77%
    09:00 +32°C° 0 mm 2 mps 753 mmHg 66%
    10:00 +35°C° 0 mm 2 mps 752 mmHg 60%
    11:00 +36°C° 0 mm 2 mps 752 mmHg 54%
    12:00 +37°C° 0 mm 2 mps 752 mmHg 49%
    13:00 +37°C° 0 mm 3 mps 751 mmHg 48%
    14:00 +37°C° 0 mm 3 mps 751 mmHg 47%
    15:00 +37°C° 0 mm 3 mps 750 mmHg 47%
    16:00 +35°C° 0 mm 3 mps 750 mmHg 56%
    17:00 +32°C° 0 mm 2 mps 750 mmHg 64%
    18:00 +30°C° 0 mm 2 mps 750 mmHg 73%
    19:00 +29°C° 0 mm 2 mps 751 mmHg 81%
    20:00 +27°C° 0 mm 1 mps 751 mmHg 89%
    21:00 +26°C° 0 mm 1 mps 752 mmHg 98%
    22:00 +26°C° 0 mm 1 mps 751 mmHg 98%
    23:00 +26°C° 0 mm 1 mps 751 mmHg 98%

    Day after tomorrow, 25 August, Sunday

    Time Temperature Precipitation Wind Pressure Humidity
    00:00 +25°C° 0 mm 1 mps 751 mmHg 98%
    01:00 +25°C° 0 mm 1 mps 751 mmHg 98%
    02:00 +23°C° 0 mm 0 mps 751 mmHg 98%
    03:00 +23°C° 0 mm 0 mps 750 mmHg 98%
    04:00 +23°C° 0 mm 0 mps 750 mmHg 98%
    05:00 +23°C° 0 mm 0 mps 750 mmHg 98%
    06:00 +23°C° 0 mm 0 mps 750 mmHg 98%
    07:00 +26°C° 0 mm 0 mps 751 mmHg 87%
    08:00 +30°C° 0 mm 1 mps 751 mmHg 75%
    09:00 +32°C° 0 mm 1 mps 752 mmHg 63%
    10:00 +35°C° 0 mm 2 mps 751 mmHg 55%
    11:00 +36°C° 0 mm 2 mps 751 mmHg 48%
    12:00 +38°C° 0 mm 2 mps 751 mmHg 40%
    13:00 +37°C° 0 mm 3 mps 750 mmHg 42%
    14:00 +37°C° 0 mm 3 mps 750 mmHg 43%
    15:00 +37°C° 0 mm 3 mps 749 mmHg 44%
    16:00 +35°C° 0 mm 3 mps 749 mmHg 54%
    17:00 +33°C° 0 mm 3 mps 749 mmHg 64%
    18:00 +30°C° 0 mm 2 mps 749 mmHg 74%
    19:00 +29°C° 0 mm 2 mps 750 mmHg 81%
    20:00 +27°C° 0 mm 2 mps 750 mmHg 89%
    21:00 +26°C° 0 mm 1 mps 751 mmHg 96%
    22:00 +26°C° 0 mm 1 mps 751 mmHg 97%
    23:00 +26°C° 0 mm 1 mps 751 mmHg 98%

    26 August, Monday

    Time Temperature Precipitation Wind Pressure Humidity
    00:00 +25°C° 0 mm 1 mps 750 mmHg 98%
    01:00 +25°C° 0 mm 1 mps 750 mmHg 98%
    02:00 +23°C° 0 mm 0 mps 750 mmHg 98%
    03:00 +23°C° 0 mm 0 mps 749 mmHg 98%
    04:00 +23°C° 0 mm 0 mps 750 mmHg 99%
    05:00 +23°C° 0 mm 0 mps 750 mmHg 99%
    06:00 +24°C° 0 mm 0 mps 750 mmHg 99%
    07:00 +28°C° 0.1 mm 1 mps 750 mmHg 90%
    08:00 +30°C° 0.1 mm 2 mps 751 mmHg 81%
    09:00 +33°C° 0.1 mm 3 mps 751 mmHg 73%
    10:00 +34°C° 0.1 mm 3 mps 751 mmHg 66%
    11:00 +35°C° 0.1 mm 3 mps 750 mmHg 59%
    12:00 +37°C° 0.1 mm 3 mps 750 mmHg 52%
    13:00 +37°C° 0.2 mm 3 mps 749 mmHg 52%
    14:00 +36°C° 0.2 mm 3 mps 749 mmHg 53%
    15:00 +36°C° 0.2 mm 4 mps 748 mmHg 53%
    16:00 +34°C° 0 mm 3 mps 748 mmHg 60%
    17:00 +33°C° 0 mm 3 mps 748 mmHg 68%
    18:00 +30°C° 0 mm 2 mps 748 mmHg 75%
    19:00 +29°C° 0.1 mm 2 mps 749 mmHg 82%
    20:00 +28°C° 0.1 mm 2 mps 750 mmHg 89%
    21:00 +27°C° 0.1 mm 1 mps 750 mmHg 97%
    22:00 +27°C° 0 mm 1 mps 750 mmHg 97%
    23:00 +27°C° 0 mm 1 mps 750 mmHg 97%

    27 August, Tuesday

    Time Temperature Precipitation Wind Pressure Humidity
    00:00 +27°C° 0 mm 1 mps 750 mmHg 97%
    01:00 +26°C° 0 mm 1 mps 750 mmHg 97%
    02:00 +26°C° 0 mm 1 mps 750 mmHg 98%
    03:00 +26°C° 0 mm 1 mps 750 mmHg 98%
    04:00 +26°C° 0 mm 1 mps 750 mmHg 98%
    05:00 +26°C° 0 mm 1 mps 750 mmHg 98%
    06:00 +26°C° 0 mm 1 mps 750 mmHg 98%
    07:00 +28°C° 0.1 mm 1 mps 750 mmHg 88%
    08:00 +30°C° 0.1 mm 2 mps 751 mmHg 77%
    09:00 +33°C° 0.1 mm 3 mps 751 mmHg 66%
    10:00 +35°C° 0 mm 3 mps 751 mmHg 60%
    11:00 +36°C° 0 mm 3 mps 751 mmHg 53%
    12:00 +37°C° 0 mm 3 mps 750 mmHg 47%
    13:00 +37°C° 0 mm 3 mps 750 mmHg 49%
    14:00 +37°C° 0 mm 3 mps 749 mmHg 51%
    15:00 +36°C° 0 mm 4 mps 749 mmHg 53%
    16:00 +34°C° 0 mm 3 mps 749 mmHg 60%
    17:00 +33°C° 0 mm 3 mps 749 mmHg 68%
    18:00 +30°C° 0 mm 2 mps 749 mmHg 76%
    19:00 +29°C° 0.1 mm 2 mps 750 mmHg 82%
    20:00 +28°C° 0.1 mm 2 mps 751 mmHg 89%
    21:00 +27°C° 0.1 mm 2 mps 751 mmHg 96%
    22:00 +27°C° 0 mm 2 mps 751 mmHg 96%
    23:00 +26°C° 0 mm 1 mps 751 mmHg 97%

    28 August, Wednesday

    Time Temperature Precipitation Wind Pressure Humidity
    00:00 +26°C° 0 mm 1 mps 751 mmHg 98%
    01:00 +26°C° 0.1 mm 1 mps 751 mmHg 98%
    02:00 +26°C° 0.1 mm 1 mps 751 mmHg 98%
    03:00 +26°C° 0.1 mm 1 mps 750 mmHg 98%
    04:00 +26°C° 0.1 mm 1 mps 751 mmHg 98%
    05:00 +26°C° 0.1 mm 1 mps 751 mmHg 99%
    06:00 +26°C° 0.1 mm 1 mps 751 mmHg 99%
    07:00 +28°C° 0.1 mm 2 mps 752 mmHg 91%
    08:00 +29°C° 0.1 mm 2 mps 752 mmHg 82%
    09:00 +31°C° 0.1 mm 3 mps 752 mmHg 74%
    10:00 +33°C° 0 mm 3 mps 752 mmHg 66%
    11:00 +35°C° 0 mm 3 mps 752 mmHg 58%
    12:00 +36°C° 0 mm 4 mps 752 mmHg 51%
    13:00 +36°C° 0 mm 4 mps 751 mmHg 50%
    14:00 +36°C° 0 mm 4 mps 750 mmHg 50%
    15:00 +36°C° 0 mm 3 mps 750 mmHg 49%
    16:00 +34°C° 0 mm 3 mps 750 mmHg 59%
    17:00 +31°C° 0 mm 2 mps 750 mmHg 68%
    18:00 +29°C° 0 mm 2 mps 751 mmHg 77%
    19:00 +28°C° 0.1 mm 2 mps 751 mmHg 84%
    20:00 +27°C° 0.1 mm 1 mps 752 mmHg 91%
    21:00 +26°C° 0.1 mm 1 mps 752 mmHg 98%
    22:00 +26°C° 0.1 mm 1 mps 752 mmHg 98%
    23:00 +26°C° 0.1 mm 1 mps 752 mmHg 98%
    Show more